This is the latest recevied weather packets stored in our database for station/object JE7UPL-13. If no packets are shown the sender has not sent any weather packets the latest 10 day(s).
| Time | Temp. | Humidity | Pressure | Rain* | Wind** | Luminosity | Snow |
|---|---|---|---|---|---|---|---|
| 1777673704 | 13.89° C | 80% | 990.5 hPa | 0 mm | - | - | - |
| 1777672805 | 13.33° C | 82% | 990 hPa | 0 mm | - | - | - |
| 1777671905 | 13.33° C | 84% | 989.1 hPa | 0 mm | - | - | - |
| 1777671005 | 12.78° C | 86% | 988.9 hPa | 0 mm | - | - | - |
| 1777670104 | 12.78° C | 89% | 988.2 hPa | 0 mm | - | - | - |
| 1777669205 | 12.22° C | 91% | 987.9 hPa | 0 mm | - | - | - |
| 1777668305 | 12.22° C | 91% | 987.2 hPa | 0 mm | - | - | - |
| 1777667405 | 12.22° C | 91% | 986.8 hPa | 0 mm | - | - | - |
| 1777666505 | 12.22° C | 91% | 986.9 hPa | 0 mm | - | - | - |
| 1777665605 | 12.22° C | 91% | 986.3 hPa | 0 mm | - | - | - |
| 1777664705 | 12.22° C | 92% | 985.8 hPa | 0 mm | - | - | - |
| 1777663805 | 11.67° C | 94% | 985.7 hPa | 0 mm | - | - | - |
| 1777662905 | 12.22° C | 94% | 985.4 hPa | 0 mm | - | - | - |
| 1777662005 | 11.67° C | 95% | 984.8 hPa | 0 mm | - | - | - |
| 1777661105 | 12.22° C | 94% | 984.6 hPa | 0 mm | - | - | - |
| 1777660205 | 12.22° C | 96% | 984.9 hPa | 0 mm | - | - | - |
| 1777659305 | 12.78° C | 97% | 984.6 hPa | 0 mm | - | - | - |
| 1777658405 | 12.78° C | 97% | 984.6 hPa | 0 mm | - | - | - |
| 1777657505 | 13.33° C | 98% | 984.6 hPa | 0 mm | - | - | - |
| 1777656605 | 12.78° C | 97% | 984.4 hPa | 0 mm | - | - | - |
| 1777655705 | 12.78° C | 97% | 984.5 hPa | 0 mm | - | - | - |
| 1777654805 | 12.78° C | 97% | 984 hPa | 0 mm | - | - | - |
| 1777653905 | 12.22° C | 97% | 984.2 hPa | 0 mm | - | - | - |
| 1777653005 | 12.22° C | 97% | 984.1 hPa | 0 mm | - | - | - |
| 1777652105 | 12.22° C | 97% | 983.9 hPa | 0 mm | - | - | - |
* Rain latest hour (hover to see other rain measurements)
** Current wind speed in m/s (hover to see current wind gust speed)